COSMOS 2413 (712)

Last updated on May 29, 2016, 5:40 p.m. UTC

1 28509U 04053B   16150.24129973  .00000074  00000-0  00000+0 0  9996
2 28509  63.1278 190.7764 0005319 178.4723 180.6614  2.13101856 88893
UTC
Height (km)
Latitude
Longitude
Inclination
Orbital Period
UTC large
Height (km)
Speed (km/s)
/
Latitude / Longitude
Inclination (degrees)
Orbital Period (minutes)
Azimuth
Elevation
Range (km)
Doppler Factor
iOS Compass Heading
iOS Angle

Next 30 passes for location: Hong Kong

Rise time Rise Azimuth (degrees) Set time Set Azimuth (degrees) Duration Max altitude (degrees)

No matching passes for this satellites